User: anonymous   Login
Location: Consuma
(43.7833°N, 11.5833°E)
Time: 06:34:15
(UTC+00:00)
Language:

STARLINK-1045 - Orbit

View from above orbital plane
View from above orbital plane
View from above satellite
View from above satellite

Ground track
Ground track

The orbit data is extracted from the following two-line orbital elements,

1 44750U 19074AP  20152.83334491  .00006329  00000-0  45316-3 0  9998
2 44750  53.0003 329.1563 0001316  94.6797 281.7370 15.05578966 30671
Epoch (UTC): 31 May 2020 20:00:01
Eccentricity: 0.0001316
inclination: 53.0003°
perigee height: 549 km
apogee height: 550 km
right ascension of ascending node: 329.1563°
argument of perigee: 94.6797°
revolutions per day: 15.05578966
mean anomaly at epoch: 281.7370°
orbit number at epoch: 3067

The dashed part of the orbit path shows where the satellite is in the earth's shadow,  

DLR